GFSSW_250_rhum_162.txt.gz
RH
34 30 27 25 24 24 33 28 34 37 40 37 41 50 58 49 68 81 67 48 30 26 23 32 56 69 100 69 81 95 86 100 99 93 89 52 74 68 63 90 97 98 96 54 53
34 29 26 25 25 32 31 34 40 47 51 56 69 68 53 69 66 32 26 19 16 19 27 27 25 30 77 76 67 71 71 67 92 75 73 73 64 71 86 100 100 100 100 99 59
30 28 32 30 40 37 40 41 58 76 66 68 80 81 48 52 39 27 24 21 19 20 21 22 30 58 86 100 100 100 100 100 100 100 100 99 93 74 98 100 100 100 75 66 58
30 34 50 58 52 47 54 57 82 89 85 74 63 77 75 36 26 26 25 24 24 26 23 26 41 98 100 90 80 86 92 100 100 100 99 87 98 100 100 100 100 100 82 70 83
33 31 36 65 79 68 64 93 99 85 65 84 91 75 53 37 31 32 27 29 27 27 26 23 62 84 82 64 52 47 46 70 78 85 66 87 95 100 100 100 100 100 82 66 51
36 36 38 56 100 100 94 100 100 78 80 100 97 80 72 54 39 31 27 27 29 28 29 30 40 39 60 56 36 30 32 26 48 65 60 86 86 99 96 94 80 68 67 69 71
35 35 36 38 55 100 100 100 100 100 100 100 100 96 92 66 38 28 28 27 26 31 27 28 31 33 38 29 26 27 27 28 27 34 45 75 84 100 81 100 100 100 100 100 100
45 45 36 35 45 58 72 100 100 100 99 100 100 100 100 100 73 52 40 34 28 29 45 51 45 47 42 32 38 32 38 44 44 27 26 36 53 58 65 57 60 80 85 97 100
49 46 43 49 41 48 45 56 66 73 73 75 97 99 96 81 75 58 33 34 29 28 41 33 38 46 42 37 29 26 44 58 55 51 38 73 88 66 49 34 39 35 41 56 63
61 60 46 46 48 45 46 42 45 52 54 60 62 77 84 73 83 54 36 36 38 28 32 47 48 73 64 46 31 42 38 33 45 44 47 90 95 82 100 99 83 46 38 44 58
50 64 68 42 52 59 58 49 45 42 45 46 56 57 59 70 73 74 56 38 38 33 30 36 56 87 100 97 60 44 38 58 76 79 58 39 52 78 73 100 100 100 56 41 49
43 53 72 66 48 52 61 62 51 48 57 65 48 55 54 42 63 80 66 49 38 41 31 40 60 100 100 92 65 85 87 56 76 100 98 94 62 82 72 70 74 88 83 91 63
63 39 55 67 75 51 56 73 63 63 44 54 48 43 54 62 56 45 72 74 57 49 38 39 71 78 78 100 95 85 55 63 76 82 65 75 98 100 100 100 87 100 100 74 67
64 79 49 61 58 70 60 66 73 76 72 51 52 56 45 44 48 45 44 56 62 50 51 54 96 100 98 83 100 79 83 98 100 100 100 99 61 100 95 100 95 73 70 98 88
83 70 65 52 82 88 78 60 73 73 84 68 71 56 46 46 50 53 42 56 65 57 62 77 100 82 73 37 64 94 100 100 100 100 100 100 100 94 100 100 100 92 95 97 87
100 91 73 86 70 81 92 70 79 70 44 80 55 61 45 65 58 63 58 50 51 71 70 52 92 51 59 77 98 100 100 100 100 100 100 100 100 88 100 100 100 100 100 100 100
100 100 83 90 100 78 98 68 87 68 55 58 51 58 96 46 75 52 61 90 54 91 97 71 80 77 77 93 100 100 100 100 93 100 100 100 100 100 100 100 100 100 91 70 59
100 100 100 100 100 100 98 100 96 90 79 83 58 56 80 62 63 86 43 100 100 100 100 100 100 100 90 100 100 100 100 100 100 100 100 100 100 100 100 100 100 76 67 80 59
100 100 100 100 100 100 100 100 100 96 99 86 76 99 79 89 86 91 79 92 93 100 100 100 100 100 99 100 100 100 100 100 100 100 87 71 69 60 57 52 43 40 38 41 46
100 100 100 100 100 100 100 100 100 100 100 99 86 100 97 100 99 98 94 96 100 100 100 100 95 97 85 92 100 100 100 99 83 69 71 72 84 80 56 49 48 49 54 46 53
100 100 100 97 100 100 100 95 100 100 100 100 100 100 100 89 91 95 96 100 94 99 94 82 86 92 100 100 100 100 100 100 100 100 93 62 62 62 50 41 42 42 46 50 51
62 80 100 100 100 100 100 100 100 100 100 100 100 100 100 100 100 100 100 100 100 100 100 100 100 100 100 100 100 100 100 100 91 74 60 54 46 54 46 42 44 42 52 50 42
54 48 55 77 99 100 100 100 100 100 100 100 100 100 100 100 100 100 100 100 100 100 100 100 100 100 100 100 100 100 90 73 64 61 54 46 46 50 39 40 37 36 47 37 32
45 46 49 50 54 68 83 100 100 100 100 100 100 100 100 100 100 100 100 100 97 100 100 100 98 94 82 70 81 70 62 63 60 50 47 37 33 33 41 37 28 29 34 30 29
30 37 53 49 53 52 61 67 94 100 100 100 100 100 100 100 100 100 100 100 100 100 100 100 96 91 88 77 72 64 62 61 52 44 34 26 33 41 32 25 29 22 17 16 15
22 26 39 43 46 49 58 56 65 74 83 98 100 100 100 100 100 100 100 100 100 100 100 100 91 79 70 67 49 41 45 44 30 26 28 35 30 35 25 20 20 20 18 18 16
13 12 18 26 34 40 47 62 65 67 68 73 68 80 91 95 95 97 100 100 100 98 93 84 70 65 69 49 33 32 37 26 26 35 34 25 38 28 21 18 18 18 15 18 20

GFSSW_250_rhum_165.txt.gz
RH
26 28 28 35 35 38 28 23 18 18 23 25 28 30 41 38 36 44 41 48 52 52 59 51 19 15 16 20 55 91 65 68 50 54 64 51 46 66 100 96 91 93 70 54 100
30 29 32 34 35 33 32 22 19 23 28 29 28 35 37 52 53 68 51 61 65 58 33 21 14 13 16 21 25 32 100 100 100 100 100 100 95 79 87 99 100 100 90 100 100
31 32 30 36 34 34 34 32 27 30 40 33 28 36 57 65 81 78 66 51 51 33 22 17 14 12 16 23 34 42 100 98 88 88 89 99 100 100 100 100 98 93 100 100 100
30 33 32 36 40 35 35 42 43 44 52 38 43 54 83 81 100 80 72 72 37 32 25 20 20 18 19 21 58 84 72 58 54 42 55 58 59 69 89 96 100 96 100 100 100
36 34 33 33 42 41 35 39 61 64 66 72 74 88 93 77 70 86 78 63 57 35 27 25 27 25 22 31 35 47 54 47 36 26 26 25 29 40 59 66 100 100 100 100 100
35 38 39 38 43 54 42 38 67 94 98 87 98 99 73 85 100 84 71 64 57 36 30 25 28 27 29 30 32 48 28 29 27 25 30 24 23 27 43 56 54 56 85 99 97
39 39 42 47 44 55 57 45 50 72 100 100 100 97 89 100 100 100 88 76 51 40 38 40 34 31 29 34 36 38 39 30 26 31 37 36 35 24 28 41 73 89 93 85 77
43 45 45 50 57 48 60 59 49 52 65 100 100 100 100 100 100 100 100 98 100 55 59 33 30 35 42 32 37 34 26 26 39 23 25 42 58 42 38 33 46 51 45 55 59
36 56 52 59 66 67 61 64 63 67 48 69 84 100 95 91 86 96 100 100 100 88 67 36 32 32 30 30 31 48 59 57 79 41 26 25 27 32 49 62 57 62 66 63 59
42 36 56 62 64 78 70 71 72 76 63 58 61 67 66 63 70 68 74 95 100 84 77 56 41 38 33 30 28 36 53 88 95 98 48 34 32 30 70 73 84 76 63 41 52
53 49 52 40 48 68 86 89 77 69 90 64 58 60 58 62 67 69 81 76 80 91 85 93 80 48 38 35 33 34 47 84 91 54 78 71 41 57 68 82 74 47 52 58 62
70 50 45 41 38 44 69 76 85 78 89 96 78 67 68 61 76 59 58 67 74 74 76 84 82 75 57 44 39 39 39 57 98 100 87 30 35 52 54 50 76 90 67 56 60
88 71 47 40 36 41 48 59 57 76 74 100 96 82 73 61 54 94 62 65 67 65 84 74 79 79 84 64 53 46 44 58 91 97 96 56 45 68 99 100 60 59 94 97 82
96 100 83 68 44 44 41 45 50 43 57 76 100 96 100 76 63 74 78 67 73 75 70 63 91 76 61 82 82 43 51 62 50 81 34 45 42 99 100 100 81 78 99 100 100
100 100 100 100 75 67 66 56 61 57 39 38 68 93 100 100 83 93 98 77 71 89 73 67 57 59 56 53 42 50 67 78 62 41 61 70 100 90 100 100 100 100 100 100 100
100 100 100 100 100 97 96 95 57 53 46 42 42 62 87 100 82 75 87 93 80 85 80 66 48 50 58 56 63 64 60 83 98 92 92 100 100 100 100 99 100 100 100 100 91
100 100 100 100 100 100 98 94 100 83 64 52 47 45 51 85 85 80 86 75 47 69 86 58 39 52 61 61 48 94 93 100 100 100 90 100 93 98 88 99 100 100 90 91 82
100 100 100 100 100 100 100 100 95 94 88 85 82 70 67 39 60 70 74 59 66 50 46 39 57 83 50 88 51 75 100 100 100 98 100 100 100 100 97 92 100 100 92 99 100
59 76 97 100 100 100 100 100 91 100 100 100 100 100 95 64 98 61 100 74 90 83 63 58 60 97 68 79 85 88 100 100 89 92 57 58 77 100 100 100 100 100 100 90 67
58 52 53 80 93 100 100 100 100 99 88 100 100 100 100 97 92 89 100 99 85 93 73 79 83 100 100 100 100 100 86 81 87 71 79 86 96 100 100 100 100 100 77 63 50
45 53 54 53 53 56 90 100 100 100 99 100 100 100 100 100 100 100 100 99 90 100 100 99 93 99 100 92 99 100 100 100 100 100 100 90 92 100 85 89 85 72 58 47 42
45 39 47 48 48 46 55 55 80 100 100 100 100 100 100 100 100 100 100 100 100 100 100 100 100 100 100 100 100 100 100 100 94 90 84 90 86 100 83 69 50 38 44 38 40
22 30 37 39 40 43 49 54 52 78 98 100 100 100 100 100 100 100 100 100 100 100 100 100 100 100 99 100 100 99 100 100 100 99 91 91 100 96 69 68 50 32 41 38 36
15 17 21 26 34 39 48 49 50 52 72 99 100 100 100 100 91 98 100 100 100 100 100 100 100 100 100 100 99 97 100 100 100 100 93 91 88 93 57 40 32 32 32 27 26
13 12 13 17 26 40 44 45 44 39 46 54 73 99 100 100 100 100 100 100 100 100 100 100 100 100 100 100 100 100 100 100 100 98 71 70 66 47 31 32 30 27 25 22 22
13 12 11 12 14 17 22 26 32 40 47 50 58 72 72 100 100 100 100 100 100 100 100 100 100 100 100 100 99 100 100 100 100 84 63 60 47 27 26 24 26 22 23 21 18
14 13 12 12 11 12 14 17 20 25 34 43 52 61 57 56 60 65 77 88 99 99 100 100 100 100 100 100 98 85 88 84 71 63 49 29 28 27 24 31 25 20 20 19 18

GFSSW_250_rhum_168.txt.gz
RH
30 24 26 31 31 30 29 34 36 38 32 23 17 14 23 25 34 28 32 35 37 37 42 48 53 55 50 48 20 12 14 15 31 34 37 39 62 91 95 96 100 91 65 75 100
35 24 30 34 34 33 31 34 38 38 32 18 16 19 28 28 32 30 38 47 47 50 58 60 64 64 34 17 14 14 11 17 36 100 99 62 39 56 85 100 99 94 82 92 100
31 33 30 30 30 40 34 35 37 42 38 26 22 29 33 32 39 44 51 63 64 70 66 54 49 47 24 17 15 12 12 26 80 68 77 64 84 87 83 81 82 81 73 77 75
22 31 30 32 36 42 39 36 40 41 47 36 38 42 38 39 61 55 66 77 89 84 91 85 76 56 25 20 16 13 14 22 54 58 48 37 32 28 34 37 34 32 50 94 100
29 26 30 36 39 39 36 36 40 44 57 42 75 72 54 54 80 79 92 88 77 73 90 87 74 39 26 25 26 22 19 25 54 39 31 29 25 27 39 33 33 30 44 39 78
89 41 33 41 36 38 41 45 39 48 55 55 42 92 82 100 94 95 96 84 99 100 91 78 67 45 29 35 33 27 26 34 38 33 30 27 24 21 24 29 30 36 45 51 67
40 43 42 37 36 41 49 53 49 50 62 64 50 81 98 100 96 100 96 100 100 100 100 82 81 63 60 48 31 27 32 34 38 35 29 26 23 23 21 25 29 45 56 66 69
44 33 38 38 38 44 46 49 56 65 61 71 70 57 75 100 100 100 100 100 100 100 100 94 98 84 59 53 32 31 37 33 39 30 28 32 60 39 47 45 28 22 32 40 33
42 41 47 45 39 50 43 59 53 60 80 71 80 77 85 84 100 100 100 100 100 100 100 100 89 100 93 51 51 35 34 32 37 29 31 45 65 82 93 78 68 73 30 26 35
42 44 44 46 48 40 36 44 53 64 72 95 85 94 83 90 82 86 100 100 98 90 98 90 100 100 82 82 75 73 58 37 35 34 29 34 43 83 100 100 100 54 38 41 46
41 42 38 49 50 47 30 43 48 62 68 87 94 93 100 99 99 100 96 87 95 99 92 83 87 96 99 99 93 100 100 88 53 37 34 41 48 49 75 100 95 85 63 30 27
94 92 87 83 74 71 80 46 38 52 57 64 76 78 95 78 99 100 100 100 99 99 96 82 82 91 84 82 88 99 100 100 97 73 41 40 36 43 48 77 95 55 38 58 48
100 100 100 89 78 90 76 46 34 39 46 55 66 62 89 76 79 100 100 93 100 100 100 95 95 90 83 76 74 73 68 74 78 92 100 70 62 58 57 66 52 48 36 49 63
92 99 100 84 84 81 72 72 48 30 35 36 66 59 65 86 71 98 100 96 90 100 100 85 100 100 72 62 79 74 70 69 68 66 63 70 64 63 64 62 60 75 55 63 97
100 100 100 100 100 100 95 68 55 38 45 32 45 68 62 61 61 83 99 88 89 95 92 88 89 94 96 92 88 88 99 96 71 55 45 61 76 60 77 91 100 87 89 81 78
100 100 100 100 100 100 100 100 93 71 47 47 53 58 75 100 71 68 68 90 92 90 74 76 81 71 94 81 91 84 57 74 82 68 47 53 53 74 61 72 100 100 81 83 77
100 100 100 100 100 100 100 100 100 98 67 67 58 51 62 57 53 61 90 82 96 93 78 75 83 90 94 99 97 78 60 52 50 42 44 77 62 58 98 79 63 58 84 82 73
100 100 100 100 100 100 100 100 100 100 100 90 71 65 56 45 62 54 70 95 63 78 67 76 100 100 99 85 89 70 65 55 44 52 51 71 83 73 81 89 98 94 58 60 82
99 92 97 100 86 99 99 72 72 83 95 100 100 77 63 62 55 60 65 100 82 70 56 56 66 81 96 78 73 98 86 95 95 48 55 70 75 94 100 100 99 100 93 88 93
72 73 75 79 72 88 83 70 60 69 73 87 88 100 96 72 78 77 66 50 84 97 88 91 91 71 93 87 78 97 99 78 95 90 70 82 100 100 100 97 94 83 80 80 83
69 70 68 70 68 63 55 55 55 58 58 69 69 76 77 100 90 78 92 71 60 57 79 99 100 100 87 72 64 72 80 83 77 97 100 100 100 100 99 77 82 88 100 85 70
60 64 70 71 61 48 47 45 44 47 50 50 56 52 55 63 82 100 94 83 79 93 78 75 61 85 100 100 99 97 100 100 100 100 100 100 100 100 94 97 96 84 86 89 65
57 75 54 48 54 53 46 44 40 36 37 35 35 39 47 55 58 87 100 100 92 92 87 86 84 93 90 100 100 100 100 100 100 100 100 100 100 100 81 72 75 60 60 73 66
44 35 33 34 28 33 30 28 26 26 28 29 32 35 46 45 53 56 62 67 100 100 100 99 88 84 87 98 100 100 100 97 97 99 96 77 70 82 71 71 70 84 92 69 58
22 19 15 14 13 14 13 14 13 13 13 15 15 22 33 34 50 51 52 56 59 63 68 100 100 100 86 88 94 93 93 100 94 90 83 74 81 98 100 98 100 73 58 52 25
12 14 12 12 12 12 11 11 11 12 12 12 14 19 25 29 44 49 47 48 52 56 61 54 79 100 100 100 100 100 100 100 100 100 100 100 100 88 80 76 66 59 46 21 22
13 14 13 13 12 11 11 12 13 12 12 14 14 15 17 26 30 36 43 43 49 55 58 61 71 98 100 100 100 100 100 100 97 95 97 95 77 69 72 64 52 31 20 21 24

GFSSW_250_rhum_174.txt.gz
RH
100 100 100 100 100 100 100 100 100 89 42 37 32 32 35 38 34 25 18 18 16 17 27 27 30 29 34 34 35 38 50 45 58 62 52 32 16 13 12 22 58 93 100 96 95
100 99 100 100 100 100 100 94 89 81 42 41 36 34 35 36 36 36 26 20 17 20 34 31 30 31 41 46 52 51 56 62 60 54 48 20 18 14 17 28 49 74 62 76 96
100 100 100 100 99 94 80 76 84 60 45 42 42 40 42 42 33 36 34 28 21 19 35 36 34 37 49 62 68 73 79 69 61 73 36 20 15 15 26 24 30 41 31 32 30
100 94 96 87 99 95 77 59 54 76 76 61 44 37 41 42 39 36 37 33 24 34 37 39 44 54 73 76 80 89 83 90 100 74 55 24 20 27 28 19 21 32 25 24 23
89 74 71 41 54 69 59 47 32 48 86 100 90 50 53 55 46 44 41 37 33 34 60 68 54 72 78 87 89 86 94 100 94 75 39 26 28 26 30 19 28 32 30 28 28
90 75 37 36 34 41 50 38 36 55 66 91 100 71 66 64 52 50 42 42 43 42 62 67 88 79 83 98 100 100 97 93 81 64 30 36 32 27 26 25 30 31 28 29 27
80 57 38 28 32 35 44 42 36 46 57 61 65 72 77 70 69 60 51 51 54 52 60 71 65 93 92 100 100 100 100 88 68 65 46 51 33 28 30 30 34 34 32 29 33
75 42 31 31 32 32 38 46 43 42 46 52 60 60 71 84 80 59 52 50 65 68 74 64 78 100 100 100 100 100 100 96 79 84 77 73 46 34 33 36 39 39 39 40 43
50 44 37 32 31 36 36 40 44 52 53 51 54 53 65 77 74 86 76 58 47 72 78 85 87 100 100 100 100 100 100 100 96 80 85 92 91 72 51 40 49 45 43 40 36
36 34 32 32 38 31 40 50 41 43 54 59 70 56 77 87 100 100 100 88 89 74 67 66 84 100 84 94 100 100 100 100 100 100 99 97 91 99 94 58 60 73 90 88 81
33 31 29 40 40 41 31 39 50 49 54 70 68 79 83 88 100 100 100 100 98 71 70 62 70 88 76 88 97 100 100 100 100 100 100 100 100 100 100 100 84 85 94 100 82
31 30 37 44 46 47 33 31 45 45 45 69 78 62 70 92 100 100 100 100 100 100 100 76 76 89 85 80 94 96 100 100 100 100 100 100 92 89 98 100 100 100 99 92 100
50 44 38 44 51 62 51 41 46 49 44 66 59 51 62 64 69 100 90 92 99 100 100 89 63 88 89 85 84 84 94 100 100 100 100 100 100 100 97 90 87 94 100 100 100
90 78 68 85 97 98 81 57 33 49 47 53 68 97 95 72 66 90 98 89 74 84 94 90 98 92 91 79 84 77 93 89 100 100 100 100 96 100 100 100 99 98 100 99 94
100 100 100 100 100 100 100 87 54 95 74 93 76 100 100 100 100 73 78 94 84 69 62 66 69 80 82 100 100 90 82 93 90 96 99 100 100 100 100 100 100 100 100 100 100
100 96 100 98 86 100 99 81 92 100 100 100 95 100 97 100 100 100 100 100 100 96 67 65 58 56 54 78 81 68 71 80 91 100 100 100 100 81 100 100 100 100 100 100 100
100 100 100 76 84 93 82 100 97 79 96 89 100 100 100 100 100 100 100 100 100 100 100 100 99 89 69 52 62 72 65 61 65 69 79 98 100 99 100 100 100 100 100 100 100
100 100 100 100 99 85 86 90 100 100 100 100 98 92 100 92 91 100 91 90 96 100 99 98 90 74 88 79 67 67 59 55 62 56 54 62 69 80 98 100 100 100 100 100 100
100 100 100 100 100 100 100 100 100 100 100 100 100 87 80 87 89 74 77 76 52 58 56 54 49 57 68 65 69 74 70 67 41 40 40 46 50 51 56 65 68 82 88 93 98
100 100 100 100 100 100 100 100 99 93 100 92 87 79 84 79 73 71 74 61 66 62 57 58 56 52 47 47 57 61 60 54 45 38 33 31 32 41 43 43 50 57 65 76 87
100 100 100 100 100 100 97 100 100 100 90 83 82 90 90 93 80 72 65 74 70 79 91 80 64 54 58 48 42 50 62 60 58 46 39 28 28 38 39 43 46 48 48 44 45
100 100 100 100 100 91 100 100 100 96 95 85 92 89 80 82 85 87 82 83 64 57 69 69 48 42 46 50 49 54 49 50 61 60 62 55 48 37 42 45 42 46 54 54 50
91 100 100 95 96 100 100 96 95 98 97 90 87 84 80 72 75 77 69 53 50 40 39 43 39 41 41 43 43 43 43 51 54 56 50 48 56 69 64 59 50 48 55 64 74
95 98 96 93 100 100 100 100 91 94 94 88 95 87 84 69 73 62 70 50 30 27 22 23 22 27 29 35 36 38 44 44 44 46 53 50 64 82 73 66 59 56 64 62 62
91 94 95 95 100 100 92 94 100 98 92 92 76 74 72 48 54 43 26 24 16 14 16 16 17 20 16 18 24 30 49 51 48 53 54 56 62 69 70 63 55 58 69 68 92
87 100 100 100 98 97 94 97 99 98 87 84 69 57 42 24 15 16 14 13 12 13 14 13 13 15 15 14 14 21 29 35 33 40 42 44 51 66 59 63 67 64 64 67 66
100 100 100 97 94 97 98 99 92 82 83 66 43 24 16 14 13 13 14 14 14 14 14 14 14 14 13 15 14 13 23 26 28 33 35 40 54 64 66 62 61 66 68 68 66

GFSSW_250_rhum_180.txt.gz
RH
100 96 98 100 100 100 100 100 100 100 100 100 99 100 100 92 89 90 92 77 72 65 52 45 46 43 33 24 18 18 24 32 39 41 44 40 48 62 63 59 63 57 51 44 22
90 72 88 100 95 85 89 84 83 100 100 98 85 86 82 78 78 80 62 71 75 69 66 54 52 54 44 30 22 17 29 34 44 44 48 52 63 70 77 76 68 66 69 35 21
100 84 56 96 100 98 100 100 100 100 100 100 86 77 72 65 62 50 45 50 84 95 86 74 70 71 46 34 27 24 34 40 47 55 68 76 79 81 80 74 80 83 65 51 25
77 100 65 93 100 100 100 100 100 100 100 91 90 86 78 67 61 52 44 39 44 67 71 77 76 67 61 45 33 24 34 60 56 70 81 91 95 93 100 100 92 78 59 35 32
99 94 100 100 100 99 100 100 100 100 100 100 95 83 72 66 56 46 44 43 43 41 76 75 83 69 55 53 38 34 31 40 82 80 95 100 100 100 98 93 95 89 68 36 35
99 70 72 100 100 100 100 100 100 100 96 100 100 92 74 68 57 54 52 50 48 44 59 65 70 85 77 58 48 40 40 36 50 79 100 100 100 100 98 100 86 76 82 74 44
97 100 100 100 100 100 100 100 100 86 99 100 99 76 68 56 58 52 48 53 58 56 52 61 82 99 100 87 82 60 46 46 38 43 67 100 100 100 100 100 100 92 91 96 71
55 69 100 100 100 100 100 90 66 58 70 81 92 88 74 70 64 72 61 46 51 62 68 72 96 100 100 100 100 100 73 54 59 57 54 54 99 100 100 100 100 91 90 94 99
46 51 65 93 100 82 63 51 47 50 54 56 48 55 72 61 63 75 81 70 66 67 58 59 70 90 93 93 99 99 90 84 75 72 71 87 100 85 100 100 100 100 100 100 100
39 48 54 54 63 47 47 45 44 48 61 57 61 65 73 87 85 98 100 90 91 96 73 59 68 99 85 78 100 100 100 99 92 76 64 73 77 82 97 100 100 100 100 100 100
54 50 48 49 52 55 50 44 51 59 52 53 59 59 66 85 86 100 100 100 100 100 75 62 59 78 87 78 98 90 72 71 85 93 90 92 74 76 68 78 100 100 100 100 100
36 34 30 35 31 46 54 53 37 42 63 69 98 100 100 100 100 100 95 86 85 98 72 51 63 62 70 76 79 92 94 94 73 75 66 63 69 76 74 65 92 100 100 100 100
48 48 46 47 54 31 39 42 49 56 84 98 78 90 99 100 100 100 97 71 71 61 86 66 61 78 80 84 81 93 94 93 77 82 64 62 60 68 64 74 78 85 100 99 100
73 72 78 81 66 80 72 66 66 76 90 100 100 100 100 100 83 81 88 99 99 100 100 100 100 99 100 100 100 100 100 100 100 100 100 99 95 99 99 92 93 76 62 82 96
65 95 71 100 100 98 100 100 95 87 100 100 97 97 100 100 100 93 98 100 100 100 100 100 100 100 100 100 100 100 96 100 100 100 100 100 100 100 100 100 92 89 94 76 77
88 93 100 100 80 95 71 87 71 73 92 100 98 93 100 100 100 98 97 100 100 100 100 100 99 94 98 96 97 90 87 91 98 100 100 100 89 90 84 74 78 81 96 100 100
100 100 100 100 100 100 100 91 82 99 100 100 99 94 100 100 100 77 90 95 100 99 100 100 98 90 88 72 72 70 76 66 58 62 74 64 58 74 68 66 69 67 52 47 50
100 100 100 100 100 100 100 100 97 99 100 100 100 100 100 100 100 99 96 85 72 75 84 82 88 91 100 99 81 82 84 76 67 64 58 43 49 55 61 67 63 64 62 55 56
100 100 100 100 100 100 100 95 86 98 98 98 97 84 97 98 90 84 89 92 97 86 70 66 73 84 83 95 93 87 74 64 62 57 58 57 54 52 51 52 55 62 65 69 71
100 100 100 100 100 99 98 94 92 99 90 100 93 85 72 78 88 76 78 97 95 92 81 72 75 77 77 78 66 62 60 59 63 58 53 48 44 44 46 49 53 57 57 57 60
100 100 100 100 100 100 99 96 90 99 92 86 95 96 87 86 83 77 91 92 82 80 88 76 62 68 67 68 74 77 63 63 64 61 58 48 49 43 37 44 45 47 47 44 47
100 100 100 100 100 100 99 100 100 98 98 88 82 79 100 100 78 87 98 94 84 93 83 79 63 59 65 72 68 69 66 60 54 51 49 44 37 34 35 33 32 27 28 34 39
100 100 100 100 100 100 96 98 83 84 100 100 100 100 100 89 88 87 66 79 82 77 75 77 72 64 62 61 59 61 59 56 51 42 30 24 19 17 15 17 19 21 23 26 32
98 100 100 100 100 97 95 100 100 100 100 100 100 100 82 96 96 76 79 81 95 94 92 88 76 68 60 53 67 56 40 30 22 17 16 14 15 17 16 15 16 18 20 22 25
100 100 100 100 100 100 100 100 100 100 99 100 100 98 91 84 92 80 86 84 88 85 86 88 78 74 64 51 46 35 18 16 16 15 14 13 14 16 19 16 16 20 24 22 24
100 100 100 100 100 100 100 100 100 100 100 100 95 83 80 83 84 86 82 84 92 97 96 97 89 74 50 44 27 14 14 16 14 13 12 12 14 18 15 15 20 20 17 22 22
100 100 100 100 100 100 100 100 100 100 100 100 83 94 99 84 78 84 93 84 72 82 90 88 50 37 35 26 13 14 16 14 12 12 12 11 14 17 15 16 19 18 20 22 22

GFSSW_250_rhum_186.txt.gz
RH
89 92 100 100 100 99 70 77 78 87 76 88 100 100 100 100 100 100 100 98 96 73 64 68 71 68 50 33 26 29 30 38 58 52 35 30 22 30 56 43 53 62 45 72 53
76 88 91 81 91 100 100 100 96 84 67 56 64 76 72 61 82 82 88 91 78 66 67 66 54 53 44 38 32 28 23 25 49 52 44 39 26 21 60 52 36 60 60 73 66
36 35 42 46 41 59 65 68 71 67 77 40 41 94 94 98 100 100 92 86 92 77 69 68 64 53 41 34 34 36 33 30 33 49 43 46 36 23 27 26 61 71 59 59 62
36 37 36 35 47 55 40 73 93 90 98 100 100 92 100 100 100 85 90 93 100 100 96 81 70 67 64 55 45 41 43 42 40 35 37 55 47 34 25 21 30 29 98 79 98
45 51 49 56 62 59 44 36 70 60 84 100 100 100 100 100 99 92 89 98 98 100 89 88 82 81 80 69 76 73 54 58 67 84 97 96 79 58 37 26 37 22 81 99 100
52 60 60 51 53 56 44 41 45 83 71 85 100 100 100 100 91 83 75 72 68 96 100 96 92 74 61 61 100 78 93 60 52 52 61 93 100 100 77 41 34 32 27 38 86
59 61 64 72 61 51 48 49 49 42 76 87 86 94 100 100 87 70 62 55 53 56 85 80 69 86 100 100 100 100 100 84 71 58 40 47 52 57 89 99 73 46 36 47 79
58 52 55 53 56 51 48 54 54 51 45 44 56 68 93 94 77 64 58 67 74 81 83 78 100 100 100 98 100 100 100 100 91 82 28 32 60 49 73 100 100 96 74 61 69
69 51 51 48 53 67 58 50 62 55 53 43 59 60 74 80 75 77 73 49 40 48 64 98 100 63 60 79 92 93 76 57 38 31 32 30 54 60 85 93 100 100 100 100 100
70 59 57 50 51 66 68 64 54 59 52 60 70 71 72 66 74 75 73 66 54 37 45 55 87 100 100 93 90 86 75 56 40 44 30 46 66 70 77 100 100 100 100 85 85
53 55 61 54 66 52 59 69 84 69 59 63 65 73 62 70 100 74 59 62 59 66 84 85 100 100 100 100 99 94 97 80 64 99 100 100 86 67 97 100 100 100 78 100 94
53 52 60 74 74 76 72 56 50 52 58 58 55 61 55 57 66 71 100 100 100 96 66 76 88 100 100 100 100 100 100 100 100 100 100 98 85 100 94 71 98 100 100 100 100
54 55 55 66 67 98 94 77 57 52 46 50 50 55 68 86 100 100 100 100 75 58 44 59 86 69 93 93 99 98 99 90 90 100 100 100 100 100 100 100 100 100 100 97 77
60 54 64 76 98 96 94 72 64 58 46 44 45 59 65 58 70 82 93 79 92 94 76 92 96 98 77 83 100 85 100 63 51 61 79 100 82 99 100 100 100 100 98 99 100
70 62 69 69 54 70 71 68 54 58 58 62 84 56 57 47 48 50 66 72 67 69 95 100 100 87 100 71 67 75 73 95 91 87 78 69 64 51 83 88 93 100 80 58 59
73 65 83 88 80 72 56 71 87 81 80 93 100 100 75 100 70 46 52 56 65 84 98 100 100 83 94 80 68 70 78 75 81 84 75 82 82 69 73 58 52 57 75 78 71
87 83 69 80 97 100 100 94 100 96 91 92 84 100 100 97 90 84 91 73 65 66 90 88 98 84 81 59 56 54 56 64 73 77 64 65 68 69 65 65 63 59 59 67 75
84 95 100 73 61 100 87 84 83 92 71 94 100 100 100 100 85 45 52 65 88 89 72 100 95 100 80 63 41 62 77 82 71 62 64 63 66 71 87 70 69 77 65 80 84
100 97 97 98 75 75 75 64 58 83 100 100 100 100 100 93 75 70 66 90 84 98 100 98 100 94 80 50 50 82 90 81 67 61 74 60 65 83 78 71 81 73 67 70 68
99 100 100 89 60 62 74 84 100 100 97 100 100 100 90 87 94 66 86 100 100 100 100 86 58 64 78 91 92 76 69 82 84 84 58 69 72 83 78 70 62 60 68 64 56
100 100 100 100 100 100 96 99 100 100 100 100 100 100 100 100 100 100 100 99 100 90 78 60 77 98 100 100 100 100 100 99 100 100 100 92 83 95 87 82 65 57 71 68 54
100 100 100 100 100 100 100 100 100 100 100 100 100 100 100 100 95 100 100 100 89 66 74 100 100 100 100 100 100 100 94 100 100 100 100 97 83 100 90 78 68 73 73 46 45
100 100 99 90 100 100 100 100 100 100 100 100 99 100 100 97 100 100 100 100 100 100 100 100 100 100 100 100 100 100 100 100 99 90 79 95 98 99 90 78 64 56 50 42 38
100 100 100 100 100 91 100 100 100 100 100 98 100 100 100 100 100 100 100 100 100 100 100 100 100 100 100 100 97 97 100 100 98 93 100 78 62 57 49 46 57 38 33 32 27
100 99 100 100 93 100 100 100 100 100 100 100 100 100 100 100 100 100 100 100 100 100 100 100 100 100 100 100 98 90 93 82 82 97 75 54 51 37 25 21 22 22 22 20 16
99 100 97 89 99 100 100 100 100 100 100 100 100 100 100 100 100 100 100 100 100 100 100 100 100 100 70 75 74 65 52 89 68 44 40 38 25 21 17 16 17 16 14 14 16
100 100 100 100 100 100 100 100 100 100 100 99 100 100 100 100 100 100 100 100 100 100 95 75 67 59 47 51 54 34 45 27 27 28 29 22 18 19 17 17 17 13 15 14 13